TimeCDT,TemperatureF,Dew PointF,Humidity,Sea Level PressureIn,VisibilityMPH,Wind Direction,Wind SpeedMPH,Gust SpeedMPH,PrecipitationIn,Events,Conditions,WindDirDegrees,DateUTC
12:53 AM,34.0,25.0,70,29.99,9.0,West,9.2,-,N/A,,Overcast,260,2013-03-15 05:53:00
1:53 AM,34.0,25.0,70,29.98,8.0,West,6.9,-,N/A,,Overcast,260,2013-03-15 06:53:00
2:53 AM,33.1,26.1,75,29.98,8.0,WNW,5.8,-,N/A,,Overcast,290,2013-03-15 07:53:00
3:00 AM,33.8,24.8,70,29.95,8.0,WNW,3.5,-,N/A,,Overcast,300,2013-03-15 08:00:00
3:53 AM,32.0,26.1,79,29.99,10.0,NNE,12.7,-,N/A,,Overcast,30,2013-03-15 08:53:00
4:53 AM,30.9,24.1,76,29.99,10.0,NE,12.7,-,N/A,,Overcast,40,2013-03-15 09:53:00
5:53 AM,28.9,21.9,75,30.01,10.0,NE,15.0,-,N/A,,Overcast,40,2013-03-15 10:53:00
6:53 AM,28.0,18.0,66,30.05,10.0,NNE,15.0,-,N/A,,Overcast,30,2013-03-15 11:53:00
7:53 AM,26.1,17.1,69,30.06,10.0,NE,12.7,-,N/A,,Overcast,40,2013-03-15 12:53:00
8:17 AM,24.8,15.8,69,30.02,10.0,NE,13.8,-,N/A,,Overcast,40,2013-03-15 13:17:00
8:53 AM,24.1,15.1,69,30.07,10.0,NE,19.6,24.2,N/A,,Overcast,40,2013-03-15 13:53:00
9:53 AM,23.0,15.1,72,30.08,10.0,NNE,16.1,-,N/A,,Mostly Cloudy,20,2013-03-15 14:53:00
10:53 AM,24.1,16.0,71,30.08,10.0,NE,15.0,21.9,N/A,,Overcast,40,2013-03-15 15:53:00
11:24 AM,24.8,14.0,64,30.03,10.0,NNE,18.4,-,N/A,,Scattered Clouds,30,2013-03-15 16:24:00
11:46 AM,24.8,15.8,69,30.03,10.0,NE,17.3,21.9,N/A,,Mostly Cloudy,40,2013-03-15 16:46:00
11:53 AM,24.1,15.1,69,30.07,10.0,NE,16.1,-,N/A,,Mostly Cloudy,40,2013-03-15 16:53:00
12:53 PM,24.1,15.1,69,30.07,10.0,NNE,20.7,27.6,N/A,,Overcast,30,2013-03-15 17:53:00
1:22 PM,24.8,14.0,64,30.03,10.0,NE,16.1,-,N/A,,Overcast,40,2013-03-15 18:22:00
1:53 PM,23.0,14.0,68,30.06,10.0,NE,12.7,-,N/A,,Overcast,50,2013-03-15 18:53:00
2:53 PM,23.0,15.1,72,30.04,10.0,NE,13.8,-,N/A,,Overcast,40,2013-03-15 19:53:00
3:53 PM,21.9,14.0,72,30.02,10.0,NE,13.8,-,N/A,,Overcast,50,2013-03-15 20:53:00
5:53 PM,21.9,14.0,72,30.03,10.0,ENE,15.0,-,N/A,,Overcast,60,2013-03-15 22:53:00
6:18 PM,21.2,12.2,68,29.98,10.0,ENE,17.3,-,N/A,,Overcast,60,2013-03-15 23:18:00
6:53 PM,19.9,12.9,74,30.04,10.0,NE,15.0,-,N/A,,Overcast,50,2013-03-15 23:53:00
7:53 PM,19.0,12.9,77,30.04,3.0,ENE,16.1,-,0.00,Snow,Light Snow,60,2013-03-16 00:53:00
8:01 PM,19.4,12.2,74,30.00,2.0,ENE,13.8,-,0.00,Snow,Light Snow,60,2013-03-16 01:01:00
8:08 PM,19.4,14.0,80,30.00,2.0,ENE,12.7,-,0.00,Snow,Light Snow,60,2013-03-16 01:08:00
8:53 PM,18.0,14.0,84,30.05,1.2,ENE,16.1,-,0.00,Snow,Light Snow,60,2013-03-16 01:53:00
9:39 PM,17.6,14.0,86,30.00,2.0,ENE,13.8,-,0.00,Snow,Light Snow,60,2013-03-16 02:39:00
9:53 PM,18.0,14.0,84,30.05,2.0,ENE,12.7,-,0.00,Snow,Light Snow,60,2013-03-16 02:53:00
10:26 PM,17.6,14.0,86,29.99,1.2,ENE,9.2,19.6,0.00,Snow,Light Snow,60,2013-03-16 03:26:00
10:53 PM,18.0,14.0,84,30.04,1.5,ENE,11.5,-,0.00,Snow,Light Snow,70,2013-03-16 03:53:00
11:26 PM,17.6,12.2,79,29.99,0.8,ENE,13.8,-,0.00,Snow,Light Snow,70,2013-03-16 04:26:00
11:41 PM,17.6,12.2,79,29.99,1.0,ENE,10.4,-,0.00,Snow,Light Snow,60,2013-03-16 04:41:00
11:53 PM,17.1,12.9,84,30.04,1.2,ENE,9.2,-,0.00,Snow,Light Snow,70,2013-03-16 04:53:00